This is the latest recevied weather packets stored in our database for station/object KF0ZH. If no packets are shown the sender has not sent any weather packets the latest 10 day(s).
| Time | Temp. | Humidity | Pressure | Rain* | Wind** | Luminosity | Snow |
|---|---|---|---|---|---|---|---|
| 1777485718 | 10.56° C | 53% | 1017.1 hPa | 0.51 mm | 1.79 m/s, 343° | - | - |
| 1777485418 | 10.56° C | 54% | 1017.2 hPa | 0.51 mm | 0 m/s | - | - |
| 1777485119 | 11.11° C | 54% | 1017.2 hPa | 0.51 mm | 5.81 m/s, 336° | - | - |
| 1777484818 | 10.56° C | 54% | 1017.3 hPa | 0.51 mm | 0 m/s | - | - |
| 1777484518 | 10.56° C | 56% | 1017.4 hPa | 0.51 mm | 3.13 m/s, 329° | - | - |
| 1777484218 | 10.56° C | 55% | 1017.4 hPa | 0.51 mm | 5.81 m/s, 316° | - | - |
| 1777483918 | 10.56° C | 55% | 1017.5 hPa | 0.51 mm | 0 m/s | - | - |
| 1777483319 | 10.56° C | 57% | 1017.4 hPa | 0.51 mm | 0 m/s | - | - |
| 1777483019 | 10.56° C | 57% | 1017.5 hPa | 0.51 mm | 2.68 m/s, 334° | - | - |
| 1777482724 | 10.56° C | 55% | 1017.6 hPa | 0.51 mm | 0 m/s | - | - |
| 1777482419 | 10.56° C | 55% | 1017.6 hPa | 0 mm | 1.79 m/s, 278° | - | - |
| 1777482119 | 10° C | 56% | 1017.7 hPa | 0 mm | 0 m/s | - | - |
| 1777481521 | 10° C | 55% | 1017.8 hPa | 0 mm | 0 m/s | - | - |
| 1777481219 | 10° C | 59% | 1017.8 hPa | 0 mm | 0 m/s | - | - |
| 1777480920 | 10° C | 57% | 1017.8 hPa | 0 mm | 2.68 m/s, 319° | - | - |
| 1777480618 | 10° C | 58% | 1017.7 hPa | 0 mm | 0 m/s | - | - |
| 1777480318 | 9.44° C | 56% | 1017.8 hPa | 0 mm | 3.58 m/s, 300° | - | - |
| 1777480020 | 9.44° C | 57% | 1017.8 hPa | 0 mm | 4.02 m/s, 336° | - | - |
| 1777479719 | 9.44° C | 57% | 1017.9 hPa | 0 mm | 1.79 m/s, 2° | - | - |
| 1777479418 | 9.44° C | 59% | 1017.8 hPa | 0 mm | 2.68 m/s, 345° | - | - |
| 1777479118 | 9.44° C | 56% | 1017.9 hPa | 0 mm | 0 m/s | - | - |
| 1777478819 | 9.44° C | 57% | 1017.9 hPa | 0 mm | 0 m/s | - | - |
| 1777478527 | 9.44° C | 59% | 1017.9 hPa | 0 mm | 1.34 m/s, 319° | - | - |
| 1777478219 | 9.44° C | 59% | 1018 hPa | 0 mm | 0 m/s | - | - |
| 1777477921 | 9.44° C | 57% | 1018 hPa | 0 mm | 0 m/s | - | - |
* Rain latest hour (hover to see other rain measurements)
** Current wind speed in m/s (hover to see current wind gust speed)